Amateur radio
NORAD ID: 24278
Int'l Code: 1996-046B
Perigee: 808.2 km
Apogee: 1,328.6 km
Inclination: 98.6 °
Period: 106.4 minutes
Semi major axis: 7439 km
Launch date: August 17, 1996
Source: Japan (JPN)
Two Line Element Set (TLE):
1 24278U 96046B 13138.25640253 .00000031 00000-0 69916-4 0 1194
2 24278 098.5577 200.8220 0349775 241.5899 146.1760 13.53000047827266
Source: AFSPC
NASA's NSSDC Master Catalog entry for JAS 2